Time,TemperatureF,DewpointF,PressureIn,WindDirection,WindDirectionDegrees,WindSpeedMPH,WindSpeedGustMPH,Humidity,HourlyPrecipIn,Conditions,Clouds,dailyrainin,SoftwareType,DateUTC
2013-03-09 00:00:00,25.3,24.1,30.50,NNW,338,0.0,0.0,95,0.00,,,0.00,meteohub,2013-03-09 05:00:00,
2013-03-09 00:01:00,25.3,24.1,30.50,NNW,338,0.0,0.0,95,0.00,,,0.00,meteohub,2013-03-09 05:01:00,
2013-03-09 00:02:00,25.3,24.1,30.50,NNW,338,0.0,0.0,95,0.00,,,0.00,meteohub,2013-03-09 05:02:00,
2013-03-09 00:07:00,25.3,24.1,30.51,NNW,338,0.0,0.0,95,0.00,,,0.00,meteohub,2013-03-09 05:07:00,
2013-03-09 00:12:00,25.2,23.9,30.51,NNW,338,0.0,0.0,95,0.00,,,0.00,meteohub,2013-03-09 05:12:00,
2013-03-09 00:18:00,25.2,23.9,30.51,NNW,338,0.0,0.0,95,0.00,,,0.00,meteohub,2013-03-09 05:18:00,
2013-03-09 00:23:00,25.2,23.9,30.50,NNW,338,0.0,0.0,95,0.00,,,0.00,meteohub,2013-03-09 05:23:00,
2013-03-09 00:28:00,25.2,23.9,30.50,NNW,338,0.0,0.0,95,0.00,,,0.00,meteohub,2013-03-09 05:28:00,
2013-03-09 00:34:00,25.2,23.9,30.49,NNW,338,0.0,0.0,95,0.00,,,0.00,meteohub,2013-03-09 05:34:00,
2013-03-09 00:39:00,25.0,23.7,30.49,NNW,338,0.0,0.0,95,0.00,,,0.00,meteohub,2013-03-09 05:39:00,
2013-03-09 00:44:00,25.0,23.7,30.49,NNW,338,0.0,0.0,95,0.00,,,0.00,meteohub,2013-03-09 05:44:00,
2013-03-09 00:50:00,24.8,23.5,30.49,NNW,338,0.0,0.0,95,0.00,,,0.00,meteohub,2013-03-09 05:50:00,
2013-03-09 00:55:00,24.6,23.4,30.48,NNW,338,0.0,0.0,95,0.00,,,0.00,meteohub,2013-03-09 05:55:00,
2013-03-09 01:00:00,24.6,23.4,30.49,NNW,338,0.0,0.0,95,0.00,,,0.00,meteohub,2013-03-09 06:00:00,
2013-03-09 01:05:00,24.4,23.2,30.48,NNW,338,0.0,0.0,95,0.00,,,0.00,meteohub,2013-03-09 06:05:00,
2013-03-09 01:11:00,24.4,23.2,30.48,NNW,338,0.0,0.0,95,0.00,,,0.00,meteohub,2013-03-09 06:11:00,
2013-03-09 01:16:00,24.3,23.0,30.48,NNW,338,0.0,0.0,95,0.00,,,0.00,meteohub,2013-03-09 06:16:00,
2013-03-09 01:21:00,24.3,23.0,30.48,NNW,338,0.0,0.0,95,0.00,,,0.00,meteohub,2013-03-09 06:21:00,
2013-03-09 01:26:00,24.1,22.8,30.48,NNW,338,0.0,0.0,95,0.00,,,0.00,meteohub,2013-03-09 06:26:00,
2013-03-09 01:32:00,24.1,22.8,30.48,NNW,338,0.0,0.0,95,0.00,,,0.00,meteohub,2013-03-09 06:32:00,
2013-03-09 01:37:00,23.9,22.6,30.48,NNW,338,0.0,0.0,95,0.00,,,0.00,meteohub,2013-03-09 06:37:00,
2013-03-09 01:42:00,23.7,22.5,30.48,NNW,338,0.0,0.0,95,0.00,,,0.00,meteohub,2013-03-09 06:42:00,
2013-03-09 01:47:00,23.7,22.5,30.48,NNW,338,0.0,0.0,95,0.00,,,0.00,meteohub,2013-03-09 06:47:00,
2013-03-09 01:52:00,23.7,22.5,30.48,NNW,338,0.0,0.0,95,0.00,,,0.00,meteohub,2013-03-09 06:52:00,
2013-03-09 01:57:00,23.5,22.3,30.48,NNW,338,0.0,0.0,95,0.00,,,0.00,meteohub,2013-03-09 06:57:00,
2013-03-09 02:02:00,23.5,22.3,30.48,NNW,338,0.0,0.0,95,0.00,,,0.00,meteohub,2013-03-09 07:02:00,
2013-03-09 02:07:00,23.5,22.3,30.47,NNW,338,0.0,0.0,95,0.00,,,0.00,meteohub,2013-03-09 07:07:00,
2013-03-09 02:12:00,23.5,22.3,30.47,NNW,338,0.0,0.0,95,0.00,,,0.00,meteohub,2013-03-09 07:12:00,
2013-03-09 02:17:00,23.4,22.1,30.47,NNW,338,0.0,0.0,95,0.00,,,0.00,meteohub,2013-03-09 07:17:00,
2013-03-09 02:22:00,23.4,22.1,30.47,NNW,338,0.0,0.0,95,0.00,,,0.00,meteohub,2013-03-09 07:22:00,
2013-03-09 02:27:00,23.4,22.1,30.46,NNW,338,0.0,0.0,95,0.00,,,0.00,meteohub,2013-03-09 07:27:00,
2013-03-09 02:32:00,23.2,21.9,30.46,NNW,338,0.0,0.0,95,0.00,,,0.00,meteohub,2013-03-09 07:32:00,
2013-03-09 02:37:00,23.2,21.9,30.46,NNW,338,0.0,0.0,95,0.00,,,0.00,meteohub,2013-03-09 07:37:00,
2013-03-09 02:42:00,23.2,21.9,30.46,NNW,338,0.0,0.0,95,0.00,,,0.00,meteohub,2013-03-09 07:42:00,
2013-03-09 02:47:00,23.0,21.7,30.45,NNW,338,0.0,0.0,95,0.00,,,0.00,meteohub,2013-03-09 07:47:00,
2013-03-09 02:52:00,22.8,21.6,30.45,NNW,338,0.0,0.0,95,0.00,,,0.00,meteohub,2013-03-09 07:52:00,
2013-03-09 02:57:00,22.8,21.6,30.45,NNW,338,0.0,0.0,95,0.00,,,0.00,meteohub,2013-03-09 07:57:00,
2013-03-09 03:02:00,22.6,21.2,30.45,NNW,338,0.0,0.0,94,0.00,,,0.00,meteohub,2013-03-09 08:02:00,
2013-03-09 03:07:00,22.6,21.2,30.45,NNW,338,0.0,0.0,94,0.00,,,0.00,meteohub,2013-03-09 08:07:00,
2013-03-09 03:12:00,22.5,21.2,30.45,NNW,338,0.0,0.0,95,0.00,,,0.00,meteohub,2013-03-09 08:12:00,
2013-03-09 03:17:00,22.5,21.2,30.45,NNW,338,0.0,0.0,95,0.00,,,0.00,meteohub,2013-03-09 08:17:00,
2013-03-09 03:22:00,22.5,21.2,30.45,NNW,338,0.0,0.0,95,0.00,,,0.00,meteohub,2013-03-09 08:22:00,
2013-03-09 03:27:00,22.5,21.2,30.45,NNW,338,0.0,0.0,95,0.00,,,0.00,meteohub,2013-03-09 08:27:00,
2013-03-09 03:32:00,22.5,21.2,30.45,NNW,338,0.0,0.0,95,0.00,,,0.00,meteohub,2013-03-09 08:32:00,
2013-03-09 03:37:00,22.5,21.2,30.45,NNW,338,0.0,0.0,95,0.00,,,0.00,meteohub,2013-03-09 08:37:00,
2013-03-09 03:42:00,22.5,21.2,30.45,NNW,338,0.0,0.0,95,0.00,,,0.00,meteohub,2013-03-09 08:42:00,
2013-03-09 03:47:00,22.5,21.2,30.44,NNW,338,0.0,0.0,95,0.00,,,0.00,meteohub,2013-03-09 08:47:00,
2013-03-09 03:52:00,22.5,21.2,30.44,NNW,338,0.0,0.0,95,0.00,,,0.00,meteohub,2013-03-09 08:52:00,
2013-03-09 03:57:00,22.5,21.2,30.44,NNW,338,0.0,0.0,95,0.00,,,0.00,meteohub,2013-03-09 08:57:00,
2013-03-09 04:02:00,22.5,21.2,30.43,NNW,338,0.0,0.0,95,0.00,,,0.00,meteohub,2013-03-09 09:02:00,
2013-03-09 04:07:00,22.5,21.0,30.44,NNW,338,0.0,0.0,94,0.00,,,0.00,meteohub,2013-03-09 09:07:00,
2013-03-09 04:12:00,22.3,21.0,30.44,NNW,338,0.0,0.0,95,0.00,,,0.00,meteohub,2013-03-09 09:12:00,
2013-03-09 04:17:00,22.3,21.0,30.44,NNW,338,0.0,0.0,95,0.00,,,0.00,meteohub,2013-03-09 09:17:00,
2013-03-09 04:22:00,22.1,20.7,30.44,NNW,338,0.0,0.0,94,0.00,,,0.00,meteohub,2013-03-09 09:22:00,
2013-03-09 04:27:00,22.1,20.7,30.44,NNW,338,0.0,0.0,94,0.00,,,0.00,meteohub,2013-03-09 09:27:00,
2013-03-09 04:32:00,21.9,20.5,30.45,NNW,338,0.0,0.0,94,0.00,,,0.00,meteohub,2013-03-09 09:32:00,
2013-03-09 04:37:00,21.9,20.5,30.45,NNW,338,0.0,0.0,94,0.00,,,0.00,meteohub,2013-03-09 09:37:00,
2013-03-09 04:42:00,21.9,20.5,30.45,NNW,338,0.0,0.0,94,0.00,,,0.00,meteohub,2013-03-09 09:42:00,
2013-03-09 04:47:00,21.9,20.5,30.45,NNW,338,0.0,0.0,94,0.00,,,0.00,meteohub,2013-03-09 09:47:00,
2013-03-09 04:52:00,21.7,20.3,30.45,NNW,338,0.0,0.0,94,0.00,,,0.00,meteohub,2013-03-09 09:52:00,
2013-03-09 04:57:00,21.9,20.5,30.45,NNW,338,0.0,0.0,94,0.00,,,0.00,meteohub,2013-03-09 09:57:00,
2013-03-09 05:02:00,21.9,20.7,30.45,NNW,338,0.0,0.0,95,0.00,,,0.00,meteohub,2013-03-09 10:02:00,
2013-03-09 05:07:00,21.9,20.5,30.45,NNW,338,0.0,0.0,94,0.00,,,0.00,meteohub,2013-03-09 10:07:00,
2013-03-09 05:12:00,21.7,20.3,30.45,NNW,338,0.0,0.0,94,0.00,,,0.00,meteohub,2013-03-09 10:12:00,
2013-03-09 05:17:00,21.7,20.3,30.45,NNW,338,0.0,0.0,94,0.00,,,0.00,meteohub,2013-03-09 10:17:00,
2013-03-09 05:22:00,21.7,20.3,30.45,NNW,338,0.0,0.0,94,0.00,,,0.00,meteohub,2013-03-09 10:22:00,
2013-03-09 05:27:00,21.9,20.7,30.45,NNW,338,0.0,0.0,95,0.00,,,0.00,meteohub,2013-03-09 10:27:00,
2013-03-09 05:32:00,21.9,20.7,30.45,NNW,338,0.0,0.0,95,0.00,,,0.00,meteohub,2013-03-09 10:32:00,
2013-03-09 05:37:00,21.9,20.5,30.45,NNW,338,0.0,0.0,94,0.00,,,0.00,meteohub,2013-03-09 10:37:00,
2013-03-09 05:42:00,21.9,20.5,30.45,NNW,338,0.0,0.0,94,0.00,,,0.00,meteohub,2013-03-09 10:42:00,
2013-03-09 05:47:00,21.9,20.5,30.45,NNW,338,0.0,0.0,94,0.00,,,0.00,meteohub,2013-03-09 10:47:00,
2013-03-09 05:52:00,21.7,20.3,30.45,NNW,338,0.0,0.0,94,0.00,,,0.00,meteohub,2013-03-09 10:52:00,
2013-03-09 05:57:00,21.7,20.3,30.45,NNW,338,0.0,0.0,94,0.00,,,0.00,meteohub,2013-03-09 10:57:00,
2013-03-09 06:02:00,21.7,20.3,30.46,NNW,338,0.0,0.0,94,0.00,,,0.00,meteohub,2013-03-09 11:02:00,
2013-03-09 06:07:00,21.7,20.3,30.46,NNW,338,0.0,0.0,94,0.00,,,0.00,meteohub,2013-03-09 11:07:00,
2013-03-09 06:12:00,21.7,20.3,30.46,NNW,338,0.0,0.0,94,0.00,,,0.00,meteohub,2013-03-09 11:12:00,
2013-03-09 06:17:00,21.7,20.3,30.46,NNW,338,0.0,0.0,94,0.00,,,0.00,meteohub,2013-03-09 11:17:00,
2013-03-09 06:22:00,21.7,20.3,30.46,NNW,338,0.0,0.0,94,0.00,,,0.00,meteohub,2013-03-09 11:22:00,
2013-03-09 06:27:00,21.7,20.3,30.46,NNW,338,0.0,0.0,94,0.00,,,0.00,meteohub,2013-03-09 11:27:00,
2013-03-09 06:32:00,21.6,20.1,30.47,NNW,338,0.0,0.0,94,0.00,,,0.00,meteohub,2013-03-09 11:32:00,
2013-03-09 06:37:00,21.6,20.1,30.46,NNW,338,0.0,0.0,94,0.00,,,0.00,meteohub,2013-03-09 11:37:00,
2013-03-09 06:42:00,21.6,20.1,30.46,NNW,338,0.0,0.0,94,0.00,,,0.00,meteohub,2013-03-09 11:42:00,
2013-03-09 06:47:00,21.4,19.9,30.46,NNW,338,0.0,0.0,94,0.00,,,0.00,meteohub,2013-03-09 11:47:00,
2013-03-09 06:52:00,21.4,19.9,30.46,NNW,338,0.0,0.0,94,0.00,,,0.00,meteohub,2013-03-09 11:52:00,
2013-03-09 06:57:00,21.4,19.9,30.46,NNW,338,0.0,0.0,94,0.00,,,0.00,meteohub,2013-03-09 11:57:00,
2013-03-09 07:02:00,21.4,19.9,30.46,NNW,338,0.0,0.0,94,0.00,,,0.00,meteohub,2013-03-09 12:02:00,
2013-03-09 07:07:00,21.4,19.9,30.46,NNW,338,0.0,0.0,94,0.00,,,0.00,meteohub,2013-03-09 12:07:00,
2013-03-09 07:12:00,21.6,20.1,30.47,NNW,338,0.0,0.0,94,0.00,,,0.00,meteohub,2013-03-09 12:12:00,
2013-03-09 07:17:00,21.6,20.1,30.47,NNW,338,0.0,0.0,94,0.00,,,0.00,meteohub,2013-03-09 12:17:00,
2013-03-09 07:22:00,21.6,20.1,30.47,NNW,338,0.0,0.0,94,0.00,,,0.00,meteohub,2013-03-09 12:22:00,
2013-03-09 07:27:00,21.7,20.3,30.47,NNW,338,0.0,0.0,94,0.00,,,0.00,meteohub,2013-03-09 12:27:00,
2013-03-09 07:32:00,22.1,20.8,30.48,NNW,338,0.0,0.0,95,0.00,,,0.00,meteohub,2013-03-09 12:32:00,
2013-03-09 07:37:00,22.5,21.2,30.48,NNW,338,0.0,0.0,95,0.00,,,0.00,meteohub,2013-03-09 12:37:00,
2013-03-09 07:42:00,22.8,21.6,30.48,NNW,338,0.0,0.0,95,0.00,,,0.00,meteohub,2013-03-09 12:42:00,
2013-03-09 07:47:00,23.2,21.9,30.48,NNW,338,0.0,0.0,95,0.00,,,0.00,meteohub,2013-03-09 12:47:00,
2013-03-09 07:52:00,23.4,22.1,30.48,NNW,338,0.0,2.0,95,0.00,,,0.00,meteohub,2013-03-09 12:52:00,
2013-03-09 07:57:00,23.9,22.6,30.47,NNW,338,0.0,2.0,95,0.00,,,0.00,meteohub,2013-03-09 12:57:00,
2013-03-09 08:02:00,24.3,23.0,30.47,NNW,338,0.0,2.0,95,0.00,,,0.00,meteohub,2013-03-09 13:02:00,
2013-03-09 08:07:00,25.0,23.7,30.47,NNW,338,0.0,1.0,95,0.00,,,0.00,meteohub,2013-03-09 13:07:00,
2013-03-09 08:12:00,25.5,24.3,30.47,NNW,338,0.0,0.0,95,0.00,,,0.00,meteohub,2013-03-09 13:12:00,
2013-03-09 08:17:00,26.1,24.8,30.47,NNW,338,2.0,2.0,95,0.00,,,0.00,meteohub,2013-03-09 13:17:00,
2013-03-09 08:22:00,26.4,25.2,30.47,WSW,252,0.0,2.0,95,0.00,,,0.00,meteohub,2013-03-09 13:22:00,
2013-03-09 08:27:00,27.0,25.7,30.47,WSW,252,0.0,2.0,95,0.00,,,0.00,meteohub,2013-03-09 13:27:00,
2013-03-09 08:32:00,27.3,25.9,30.48,WSW,252,0.0,2.0,94,0.00,,,0.00,meteohub,2013-03-09 13:32:00,
2013-03-09 08:37:00,27.7,26.2,30.48,WSW,252,2.0,3.0,94,0.00,,,0.00,meteohub,2013-03-09 13:37:00,
2013-03-09 08:42:00,27.9,26.4,30.47,SW,224,2.0,3.0,94,0.00,,,0.00,meteohub,2013-03-09 13:42:00,
2013-03-09 08:47:00,28.4,27.0,30.47,SW,224,2.0,3.0,94,0.00,,,0.00,meteohub,2013-03-09 13:47:00,
2013-03-09 08:52:00,28.8,27.3,30.47,SW,224,3.0,3.0,94,0.00,,,0.00,meteohub,2013-03-09 13:52:00,
2013-03-09 08:57:00,29.1,27.7,30.47,SSW,211,3.0,5.0,94,0.00,,,0.00,meteohub,2013-03-09 13:57:00,
2013-03-09 09:02:00,29.3,27.5,30.46,SSW,211,3.0,6.0,93,0.00,,,0.00,meteohub,2013-03-09 14:02:00,
2013-03-09 09:07:00,29.7,27.9,30.46,SSW,211,2.0,6.0,93,0.00,,,0.00,meteohub,2013-03-09 14:07:00,
2013-03-09 09:12:00,30.0,28.2,30.46,SSW,211,2.0,6.0,93,0.00,,,0.00,meteohub,2013-03-09 14:12:00,
2013-03-09 09:17:00,30.4,28.6,30.46,SSW,211,2.0,5.0,93,0.00,,,0.00,meteohub,2013-03-09 14:17:00,
2013-03-09 09:22:00,30.9,29.1,30.46,SSW,210,0.0,5.0,93,0.00,,,0.00,meteohub,2013-03-09 14:22:00,
2013-03-09 09:27:00,31.5,29.7,30.46,SSW,210,2.0,4.0,93,0.00,,,0.00,meteohub,2013-03-09 14:27:00,
2013-03-09 09:32:00,32.0,30.2,30.45,SSW,210,3.0,4.0,93,0.00,,,0.00,meteohub,2013-03-09 14:32:00,
2013-03-09 09:37:00,32.4,30.4,30.45,SSW,210,0.0,4.0,92,0.00,,,0.00,meteohub,2013-03-09 14:37:00,
2013-03-09 09:43:00,32.9,30.6,30.45,SSW,210,0.0,3.0,91,0.00,,,0.00,meteohub,2013-03-09 14:43:00,
2013-03-09 09:48:00,33.4,30.7,30.45,SSW,210,0.0,3.0,90,0.00,,,0.00,meteohub,2013-03-09 14:48:00,
2013-03-09 09:53:00,34.2,31.5,30.45,SSW,210,0.0,1.0,90,0.00,,,0.00,meteohub,2013-03-09 14:53:00,
2013-03-09 09:59:00,34.7,31.5,30.44,SSW,210,0.0,1.0,88,0.00,,,0.00,meteohub,2013-03-09 14:59:00,
2013-03-09 10:04:00,35.2,32.0,30.44,SSW,210,0.0,3.0,88,0.00,,,0.00,meteohub,2013-03-09 15:04:00,
2013-03-09 10:09:00,35.6,32.2,30.44,SSW,210,0.0,3.0,87,0.00,,,0.00,meteohub,2013-03-09 15:09:00,
2013-03-09 10:14:00,36.0,31.8,30.44,SSW,210,2.0,3.0,85,0.00,,,0.00,meteohub,2013-03-09 15:14:00,
2013-03-09 10:20:00,36.1,31.8,30.44,SSW,206,0.0,5.0,84,0.00,,,0.00,meteohub,2013-03-09 15:20:00,
2013-03-09 10:25:00,36.7,32.4,30.44,SSW,206,1.0,5.0,84,0.00,,,0.00,meteohub,2013-03-09 15:25:00,
2013-03-09 10:30:00,37.0,32.0,30.44,SSW,208,2.0,5.0,82,0.00,,,0.00,meteohub,2013-03-09 15:30:00,
2013-03-09 10:36:00,37.6,32.0,30.44,SSW,208,0.0,4.0,80,0.00,,,0.00,meteohub,2013-03-09 15:36:00,
2013-03-09 10:41:00,37.9,30.7,30.44,South,182,2.0,7.0,75,0.00,,,0.00,meteohub,2013-03-09 15:41:00,
2013-03-09 10:46:00,38.1,30.2,30.43,South,184,3.0,11.0,73,0.00,,,0.00,meteohub,2013-03-09 15:46:00,
2013-03-09 10:51:00,38.7,30.7,30.43,SSW,192,3.0,11.0,73,0.00,,,0.00,meteohub,2013-03-09 15:51:00,
2013-03-09 10:57:00,38.7,29.7,30.43,SW,233,4.0,11.0,70,0.00,,,0.00,meteohub,2013-03-09 15:57:00,
2013-03-09 11:02:00,38.8,29.8,30.43,SSW,213,5.0,10.0,70,0.00,,,0.00,meteohub,2013-03-09 16:02:00,
2013-03-09 11:07:00,39.0,30.4,30.43,SW,236,1.0,10.0,71,0.00,,,0.00,meteohub,2013-03-09 16:07:00,
2013-03-09 11:12:00,39.2,30.2,30.43,SE,128,2.0,9.0,70,0.00,,,0.00,meteohub,2013-03-09 16:12:00,
2013-03-09 11:17:00,39.4,30.4,30.43,SSW,202,5.0,9.0,70,0.00,,,0.00,meteohub,2013-03-09 16:17:00,
2013-03-09 11:22:00,39.6,30.6,30.43,WSW,251,0.0,9.0,70,0.00,,,0.00,meteohub,2013-03-09 16:22:00,
2013-03-09 11:27:00,39.9,30.9,30.43,ESE,113,6.0,8.0,70,0.00,,,0.00,meteohub,2013-03-09 16:27:00,
2013-03-09 11:32:00,40.5,31.5,30.42,East,96,8.0,8.0,70,0.00,,,0.00,meteohub,2013-03-09 16:32:00,
2013-03-09 11:37:00,40.3,30.2,30.42,SSW,194,2.0,9.0,67,0.00,,,0.00,meteohub,2013-03-09 16:37:00,
2013-03-09 11:42:00,40.6,31.3,30.42,SE,128,1.0,9.0,69,0.00,,,0.00,meteohub,2013-03-09 16:42:00,
2013-03-09 11:47:00,40.6,31.3,30.42,SE,130,1.0,9.0,69,0.00,,,0.00,meteohub,2013-03-09 16:47:00,
2013-03-09 11:53:00,40.8,31.1,30.42,SSW,209,4.0,8.0,68,0.00,,,0.00,meteohub,2013-03-09 16:53:00,
2013-03-09 11:58:00,41.4,31.6,30.41,SE,130,5.0,14.0,68,0.00,,,0.00,meteohub,2013-03-09 16:58:00,
2013-03-09 12:03:00,41.4,30.6,30.41,SSW,200,1.0,14.0,65,0.00,,,0.00,meteohub,2013-03-09 17:03:00,
2013-03-09 12:09:00,41.7,30.7,30.41,ENE,73,0.0,14.0,65,0.00,,,0.00,meteohub,2013-03-09 17:09:00,
2013-03-09 12:14:00,42.1,30.7,30.40,East,100,2.0,9.0,64,0.00,,,0.00,meteohub,2013-03-09 17:14:00,
2013-03-09 12:19:00,42.3,30.6,30.41,SE,136,5.0,11.0,63,0.00,,,0.00,meteohub,2013-03-09 17:19:00,
2013-03-09 12:24:00,42.3,30.6,30.40,South,176,5.0,11.0,63,0.00,,,0.00,meteohub,2013-03-09 17:24:00,
2013-03-09 12:30:00,42.4,30.7,30.40,ESE,120,4.0,11.0,63,0.00,,,0.00,meteohub,2013-03-09 17:30:00,
2013-03-09 12:35:00,42.4,30.7,30.40,SSE,165,0.0,9.0,63,0.00,,,0.00,meteohub,2013-03-09 17:35:00,
2013-03-09 12:40:00,43.0,31.3,30.40,SSE,168,2.0,9.0,63,0.00,,,0.00,meteohub,2013-03-09 17:40:00,
2013-03-09 12:46:00,43.3,31.3,30.40,South,178,4.0,11.0,62,0.00,,,0.00,meteohub,2013-03-09 17:46:00,
2013-03-09 12:51:00,43.3,31.6,30.40,SW,215,1.0,11.0,63,0.00,,,0.00,meteohub,2013-03-09 17:51:00,
2013-03-09 12:56:00,43.5,30.9,30.40,SW,214,0.0,8.0,61,0.00,,,0.00,meteohub,2013-03-09 17:56:00,
2013-03-09 13:02:00,43.7,31.1,30.40,SSW,211,3.0,8.0,61,0.00,,,0.00,meteohub,2013-03-09 18:02:00,
2013-03-09 13:07:00,43.9,31.6,30.39,SSE,166,2.0,8.0,62,0.00,,,0.00,meteohub,2013-03-09 18:07:00,
2013-03-09 13:12:00,43.9,32.2,30.39,SE,130,2.0,8.0,63,0.00,,,0.00,meteohub,2013-03-09 18:12:00,
2013-03-09 13:17:00,43.7,32.4,30.38,SW,231,0.0,8.0,64,0.00,,,0.00,meteohub,2013-03-09 18:17:00,
2013-03-09 13:22:00,44.1,31.8,30.38,ESE,112,4.0,8.0,62,0.00,,,0.00,meteohub,2013-03-09 18:22:00,
2013-03-09 13:27:00,44.2,32.4,30.38,East,99,2.0,9.0,63,0.00,,,0.00,meteohub,2013-03-09 18:27:00,
2013-03-09 13:32:00,44.4,32.2,30.37,SW,233,2.0,9.0,62,0.00,,,0.00,meteohub,2013-03-09 18:32:00,
2013-03-09 13:37:00,45.0,32.4,30.36,SE,125,5.0,9.0,61,0.00,,,0.00,meteohub,2013-03-09 18:37:00,
2013-03-09 13:42:00,45.1,32.0,30.36,SW,232,3.0,12.0,60,0.00,,,0.00,meteohub,2013-03-09 18:42:00,
2013-03-09 13:48:00,45.7,33.1,30.36,ENE,61,2.0,12.0,61,0.00,,,0.00,meteohub,2013-03-09 18:48:00,
2013-03-09 13:53:00,46.0,32.9,30.36,South,183,6.0,12.0,60,0.00,,,0.00,meteohub,2013-03-09 18:53:00,
2013-03-09 13:58:00,46.4,32.4,30.35,SE,143,4.0,10.0,58,0.00,,,0.00,meteohub,2013-03-09 18:58:00,
2013-03-09 14:04:00,46.9,32.9,30.35,NNE,25,1.0,10.0,58,0.00,,,0.00,meteohub,2013-03-09 19:04:00,
2013-03-09 14:09:00,47.1,33.1,30.35,ESE,115,5.0,10.0,58,0.00,,,0.00,meteohub,2013-03-09 19:09:00,
2013-03-09 14:14:00,47.1,32.7,30.34,SW,232,3.0,12.0,57,0.00,,,0.00,meteohub,2013-03-09 19:14:00,
2013-03-09 14:20:00,47.5,33.1,30.34,SSW,199,1.0,12.0,57,0.00,,,0.00,meteohub,2013-03-09 19:20:00,
2013-03-09 14:25:00,47.8,31.5,30.33,WSW,244,3.0,9.0,53,0.00,,,0.00,meteohub,2013-03-09 19:25:00,
2013-03-09 14:30:00,48.0,31.6,30.33,SW,223,5.0,10.0,53,0.00,,,0.00,meteohub,2013-03-09 19:30:00,
2013-03-09 14:36:00,48.0,31.6,30.33,SSW,197,3.0,12.0,53,0.00,,,0.00,meteohub,2013-03-09 19:36:00,
2013-03-09 14:41:00,48.4,32.0,30.33,SW,222,7.0,12.0,53,0.00,,,0.00,meteohub,2013-03-09 19:41:00,
2013-03-09 14:47:00,48.7,32.4,30.33,South,184,0.0,10.0,53,0.00,,,0.00,meteohub,2013-03-09 19:47:00,
2013-03-09 14:52:00,48.6,32.2,30.32,East,94,2.0,10.0,53,0.00,,,0.00,meteohub,2013-03-09 19:52:00,
2013-03-09 14:57:00,48.7,32.9,30.32,SSE,150,4.0,10.0,54,0.00,,,0.00,meteohub,2013-03-09 19:57:00,
2013-03-09 15:02:00,48.7,33.3,30.32,SE,133,1.0,12.0,55,0.00,,,0.00,meteohub,2013-03-09 20:02:00,
2013-03-09 15:07:00,48.7,32.9,30.32,SSW,192,2.0,12.0,54,0.00,,,0.00,meteohub,2013-03-09 20:07:00,
2013-03-09 15:12:00,49.3,32.9,30.32,South,169,6.0,9.0,53,0.00,,,0.00,meteohub,2013-03-09 20:12:00,
2013-03-09 15:17:00,49.3,32.9,30.32,SSW,207,2.0,8.0,53,0.00,,,0.00,meteohub,2013-03-09 20:17:00,
2013-03-09 15:22:00,49.5,33.4,30.31,East,92,6.0,9.0,54,0.00,,,0.00,meteohub,2013-03-09 20:22:00,
2013-03-09 15:27:00,49.5,33.4,30.31,South,185,4.0,13.0,54,0.00,,,0.00,meteohub,2013-03-09 20:27:00,
2013-03-09 15:32:00,49.6,33.3,30.30,SSW,211,5.0,13.0,53,0.00,,,0.00,meteohub,2013-03-09 20:32:00,
2013-03-09 15:37:00,49.6,32.7,30.30,South,180,3.0,13.0,52,0.00,,,0.00,meteohub,2013-03-09 20:37:00,
2013-03-09 15:42:00,49.8,33.4,30.30,SE,134,5.0,11.0,53,0.00,,,0.00,meteohub,2013-03-09 20:42:00,
2013-03-09 15:47:00,49.8,32.9,30.30,SE,130,1.0,11.0,52,0.00,,,0.00,meteohub,2013-03-09 20:47:00,
2013-03-09 15:52:00,50.0,33.1,30.30,South,175,0.0,9.0,52,0.00,,,0.00,meteohub,2013-03-09 20:52:00,
2013-03-09 15:57:00,50.4,33.4,30.29,ESE,107,6.0,9.0,52,0.00,,,0.00,meteohub,2013-03-09 20:57:00,
2013-03-09 16:03:00,50.5,33.1,30.29,West,266,3.0,9.0,51,0.00,,,0.00,meteohub,2013-03-09 21:03:00,
2013-03-09 16:08:00,50.7,33.3,30.29,SSW,209,8.0,11.0,51,0.00,,,0.00,meteohub,2013-03-09 21:08:00,
2013-03-09 16:13:00,50.7,33.3,30.28,SSW,201,4.0,11.0,51,0.00,,,0.00,meteohub,2013-03-09 21:13:00,
2013-03-09 16:19:00,50.9,33.4,30.28,SSW,204,5.0,12.0,51,0.00,,,0.00,meteohub,2013-03-09 21:19:00,
2013-03-09 16:24:00,51.1,33.1,30.28,SSE,157,1.0,12.0,50,0.00,,,0.00,meteohub,2013-03-09 21:24:00,
2013-03-09 16:29:00,51.1,33.6,30.28,ESE,123,2.0,11.0,51,0.00,,,0.00,meteohub,2013-03-09 21:29:00,
2013-03-09 16:35:00,51.1,32.5,30.27,SW,220,2.0,11.0,49,0.00,,,0.00,meteohub,2013-03-09 21:35:00,
2013-03-09 16:40:00,51.1,31.6,30.27,SW,221,2.0,10.0,47,0.00,,,0.00,meteohub,2013-03-09 21:40:00,
2013-03-09 16:45:00,51.1,31.6,30.27,West,267,5.0,12.0,47,0.00,,,0.00,meteohub,2013-03-09 21:45:00,
2013-03-09 16:51:00,51.1,31.6,30.27,SSW,209,3.0,12.0,47,0.00,,,0.00,meteohub,2013-03-09 21:51:00,
2013-03-09 16:56:00,50.9,31.5,30.27,SSW,209,6.0,9.0,47,0.00,,,0.00,meteohub,2013-03-09 21:56:00,
2013-03-09 17:01:00,51.1,31.6,30.27,SW,216,3.0,9.0,47,0.00,,,0.00,meteohub,2013-03-09 22:01:00,
2013-03-09 17:06:00,51.1,31.6,30.26,SSW,200,2.0,8.0,47,0.00,,,0.00,meteohub,2013-03-09 22:06:00,
2013-03-09 17:12:00,50.7,31.8,30.27,SSW,210,2.0,8.0,48,0.00,,,0.00,meteohub,2013-03-09 22:12:00,
2013-03-09 17:17:00,50.7,31.8,30.26,SW,235,5.0,8.0,48,0.00,,,0.00,meteohub,2013-03-09 22:17:00,
2013-03-09 17:22:00,50.7,31.8,30.26,SSW,199,1.0,8.0,48,0.00,,,0.00,meteohub,2013-03-09 22:22:00,
2013-03-09 17:27:00,50.5,31.6,30.26,South,188,4.0,8.0,48,0.00,,,0.00,meteohub,2013-03-09 22:27:00,
2013-03-09 17:32:00,50.5,31.6,30.26,SSW,213,2.0,8.0,48,0.00,,,0.00,meteohub,2013-03-09 22:32:00,
2013-03-09 17:37:00,50.5,32.0,30.27,SSW,202,3.0,5.0,49,0.00,,,0.00,meteohub,2013-03-09 22:37:00,
2013-03-09 17:42:00,50.4,32.4,30.26,SSW,192,3.0,5.0,50,0.00,,,0.00,meteohub,2013-03-09 22:42:00,
2013-03-09 17:47:00,50.2,32.2,30.26,SW,232,2.0,6.0,50,0.00,,,0.00,meteohub,2013-03-09 22:47:00,
2013-03-09 17:53:00,50.0,32.5,30.26,SW,232,0.0,6.0,51,0.00,,,0.00,meteohub,2013-03-09 22:53:00,
2013-03-09 17:58:00,49.6,32.7,30.26,SW,231,0.0,6.0,52,0.00,,,0.00,meteohub,2013-03-09 22:58:00,
2013-03-09 18:03:00,49.5,32.5,30.26,South,171,2.0,5.0,52,0.00,,,0.00,meteohub,2013-03-09 23:03:00,
2013-03-09 18:09:00,49.3,32.4,30.26,South,173,0.0,2.0,52,0.00,,,0.00,meteohub,2013-03-09 23:09:00,
2013-03-09 18:14:00,48.7,32.4,30.26,South,173,0.0,4.0,53,0.00,,,0.00,meteohub,2013-03-09 23:14:00,
2013-03-09 18:19:00,48.4,32.9,30.26,South,173,0.0,4.0,55,0.00,,,0.00,meteohub,2013-03-09 23:19:00,
2013-03-09 18:25:00,47.7,32.7,30.26,South,173,0.0,2.0,56,0.00,,,0.00,meteohub,2013-03-09 23:25:00,
2013-03-09 18:30:00,46.9,32.9,30.26,South,173,0.0,1.0,58,0.00,,,0.00,meteohub,2013-03-09 23:30:00,
2013-03-09 18:35:00,46.2,32.7,30.26,South,173,0.0,0.0,59,0.00,,,0.00,meteohub,2013-03-09 23:35:00,
2013-03-09 18:40:00,45.3,33.4,30.26,South,173,0.0,0.0,63,0.00,,,0.00,meteohub,2013-03-09 23:40:00,
2013-03-09 18:46:00,44.4,33.4,30.26,South,173,0.0,1.0,65,0.00,,,0.00,meteohub,2013-03-09 23:46:00,
2013-03-09 18:51:00,43.7,33.4,30.25,South,173,0.0,1.0,67,0.00,,,0.00,meteohub,2013-03-09 23:51:00,
2013-03-09 18:56:00,43.2,32.9,30.25,South,173,0.0,1.0,67,0.00,,,0.00,meteohub,2013-03-09 23:56:00,
2013-03-09 19:02:00,42.6,33.1,30.25,South,173,0.0,1.0,69,0.00,,,0.00,meteohub,2013-03-10 00:02:00,
2013-03-09 19:07:00,42.3,33.3,30.25,South,173,0.0,1.0,70,0.00,,,0.00,meteohub,2013-03-10 00:07:00,
2013-03-09 19:12:00,42.1,32.7,30.25,SSE,149,0.0,5.0,69,0.00,,,0.00,meteohub,2013-03-10 00:12:00,
2013-03-09 19:17:00,42.1,32.4,30.25,SSE,149,0.0,5.0,68,0.00,,,0.00,meteohub,2013-03-10 00:17:00,
2013-03-09 19:22:00,41.7,32.4,30.25,SSE,151,0.0,5.0,69,0.00,,,0.00,meteohub,2013-03-10 00:22:00,
2013-03-09 19:27:00,41.4,32.0,30.25,SSE,151,0.0,2.0,69,0.00,,,0.00,meteohub,2013-03-10 00:27:00,
2013-03-09 19:32:00,40.8,31.8,30.25,SSE,151,0.0,2.0,70,0.00,,,0.00,meteohub,2013-03-10 00:32:00,
2013-03-09 19:37:00,40.5,31.8,30.25,SSE,151,0.0,1.0,71,0.00,,,0.00,meteohub,2013-03-10 00:37:00,
2013-03-09 19:42:00,40.3,32.0,30.25,SSE,151,0.0,2.0,72,0.00,,,0.00,meteohub,2013-03-10 00:42:00,
2013-03-09 19:47:00,39.7,31.8,30.25,SSE,151,0.0,2.0,73,0.00,,,0.00,meteohub,2013-03-10 00:47:00,
2013-03-09 19:52:00,39.6,31.6,30.25,SSE,151,0.0,2.0,73,0.00,,,0.00,meteohub,2013-03-10 00:52:00,
2013-03-09 19:57:00,39.2,31.3,30.25,SSE,151,0.0,1.0,73,0.00,,,0.00,meteohub,2013-03-10 00:57:00,
2013-03-09 20:02:00,39.0,31.5,30.25,SSE,151,0.0,2.0,74,0.00,,,0.00,meteohub,2013-03-10 01:02:00,
2013-03-09 20:07:00,39.2,31.3,30.24,SSE,151,0.0,2.0,73,0.00,,,0.00,meteohub,2013-03-10 01:07:00,
2013-03-09 20:12:00,39.4,31.5,30.24,SSE,151,0.0,2.0,73,0.00,,,0.00,meteohub,2013-03-10 01:12:00,
2013-03-09 20:17:00,39.4,31.5,30.24,SSE,149,0.0,2.0,73,0.00,,,0.00,meteohub,2013-03-10 01:17:00,
2013-03-09 20:22:00,39.4,31.1,30.24,SSE,149,0.0,1.0,72,0.00,,,0.00,meteohub,2013-03-10 01:22:00,
2013-03-09 20:27:00,39.2,31.3,30.24,SSE,149,0.0,1.0,73,0.00,,,0.00,meteohub,2013-03-10 01:27:00,
2013-03-09 20:32:00,38.8,31.3,30.24,SSE,158,0.0,2.0,74,0.00,,,0.00,meteohub,2013-03-10 01:32:00,
2013-03-09 20:37:00,38.5,30.9,30.24,SSE,158,0.0,2.0,74,0.00,,,0.00,meteohub,2013-03-10 01:37:00,
2013-03-09 20:42:00,38.5,31.3,30.24,SE,145,0.0,2.0,75,0.00,,,0.00,meteohub,2013-03-10 01:42:00,
2013-03-09 20:47:00,38.8,30.9,30.23,South,173,0.0,4.0,73,0.00,,,0.00,meteohub,2013-03-10 01:47:00,
2013-03-09 20:52:00,39.6,31.3,30.23,South,183,1.0,4.0,72,0.00,,,0.00,meteohub,2013-03-10 01:52:00,
2013-03-09 20:57:00,39.7,31.5,30.23,South,183,0.0,4.0,72,0.00,,,0.00,meteohub,2013-03-10 01:57:00,
2013-03-09 21:02:00,39.7,31.1,30.23,South,183,1.0,4.0,71,0.00,,,0.00,meteohub,2013-03-10 02:02:00,
2013-03-09 21:07:00,39.9,30.9,30.22,SSW,200,1.0,4.0,70,0.00,,,0.00,meteohub,2013-03-10 02:07:00,
2013-03-09 21:12:00,40.5,30.7,30.22,South,178,1.0,3.0,68,0.00,,,0.00,meteohub,2013-03-10 02:12:00,
2013-03-09 21:17:00,41.7,30.7,30.22,SSW,200,5.0,5.0,65,0.00,,,0.00,meteohub,2013-03-10 02:17:00,
2013-03-09 21:22:00,43.0,30.9,30.22,SSW,209,2.0,7.0,62,0.00,,,0.00,meteohub,2013-03-10 02:22:00,
2013-03-09 21:27:00,43.2,31.1,30.22,South,177,0.0,8.0,62,0.00,,,0.00,meteohub,2013-03-10 02:27:00,
2013-03-09 21:32:00,42.8,30.7,30.22,SW,217,0.0,8.0,62,0.00,,,0.00,meteohub,2013-03-10 02:32:00,
2013-03-09 21:37:00,42.3,30.9,30.22,SW,217,0.0,5.0,64,0.00,,,0.00,meteohub,2013-03-10 02:37:00,
2013-03-09 21:43:00,41.0,30.6,30.22,SW,217,0.0,4.0,66,0.00,,,0.00,meteohub,2013-03-10 02:43:00,
2013-03-09 21:48:00,39.9,30.6,30.23,SW,217,1.0,2.0,69,0.00,,,0.00,meteohub,2013-03-10 02:48:00,
2013-03-09 21:53:00,39.4,30.7,30.22,SSW,195,0.0,2.0,71,0.00,,,0.00,meteohub,2013-03-10 02:53:00,
2013-03-09 21:59:00,38.8,30.2,30.22,SSW,195,1.0,3.0,71,0.00,,,0.00,meteohub,2013-03-10 02:59:00,
2013-03-09 22:04:00,38.7,30.4,30.22,SSW,195,0.0,3.0,72,0.00,,,0.00,meteohub,2013-03-10 03:04:00,
2013-03-09 22:09:00,38.7,30.4,30.22,SSW,195,0.0,3.0,72,0.00,,,0.00,meteohub,2013-03-10 03:09:00,
2013-03-09 22:14:00,38.5,30.2,30.22,SSW,193,0.0,3.0,72,0.00,,,0.00,meteohub,2013-03-10 03:14:00,
2013-03-09 22:20:00,38.3,30.0,30.21,SSW,193,0.0,4.0,72,0.00,,,0.00,meteohub,2013-03-10 03:20:00,
2013-03-09 22:25:00,38.1,29.8,30.22,SSW,193,0.0,4.0,72,0.00,,,0.00,meteohub,2013-03-10 03:25:00,
2013-03-09 22:30:00,37.9,30.0,30.22,SSW,193,0.0,4.0,73,0.00,,,0.00,meteohub,2013-03-10 03:30:00,
2013-03-09 22:36:00,37.6,30.4,30.21,SSW,193,0.0,1.0,75,0.00,,,0.00,meteohub,2013-03-10 03:36:00,
2013-03-09 22:41:00,37.2,30.4,30.22,SSW,193,0.0,2.0,76,0.00,,,0.00,meteohub,2013-03-10 03:41:00,
2013-03-09 22:46:00,36.9,30.6,30.21,SSW,193,0.0,2.0,78,0.00,,,0.00,meteohub,2013-03-10 03:46:00,
2013-03-09 22:52:00,36.1,30.2,30.21,SSW,193,2.0,2.0,79,0.00,,,0.00,meteohub,2013-03-10 03:52:00,
2013-03-09 22:57:00,36.0,30.0,30.21,SSW,193,0.0,2.0,79,0.00,,,0.00,meteohub,2013-03-10 03:57:00,
2013-03-09 23:02:00,35.8,30.2,30.21,SSW,193,0.0,2.0,80,0.00,,,0.00,meteohub,2013-03-10 04:02:00,
2013-03-09 23:07:00,35.4,29.8,30.21,SSW,193,0.0,2.0,80,0.00,,,0.00,meteohub,2013-03-10 04:07:00,
2013-03-09 23:12:00,35.4,29.8,30.21,SSW,193,0.0,2.0,80,0.00,,,0.00,meteohub,2013-03-10 04:12:00,
2013-03-09 23:17:00,35.4,30.2,30.21,SSW,193,0.0,2.0,81,0.00,,,0.00,meteohub,2013-03-10 04:17:00,
2013-03-09 23:22:00,35.2,30.0,30.21,SSW,193,2.0,2.0,81,0.00,,,0.00,meteohub,2013-03-10 04:22:00,
2013-03-09 23:27:00,35.1,30.2,30.21,SSW,193,0.0,2.0,82,0.00,,,0.00,meteohub,2013-03-10 04:27:00,
2013-03-09 23:32:00,35.1,30.2,30.21,SSW,193,0.0,3.0,82,0.00,,,0.00,meteohub,2013-03-10 04:32:00,
2013-03-09 23:37:00,35.1,30.4,30.21,SSW,193,1.0,3.0,83,0.00,,,0.00,meteohub,2013-03-10 04:37:00,
2013-03-09 23:43:00,35.2,30.9,30.21,SSW,193,0.0,4.0,84,0.00,,,0.00,meteohub,2013-03-10 04:43:00,
2013-03-09 23:48:00,35.2,30.9,30.20,SSW,193,0.0,4.0,84,0.00,,,0.00,meteohub,2013-03-10 04:48:00,
2013-03-09 23:53:00,35.4,30.7,30.21,SSW,193,0.0,4.0,83,0.00,,,0.00,meteohub,2013-03-10 04:53:00,
2013-03-09 23:59:00,36.0,31.6,30.20,SSW,193,0.0,2.0,84,0.00,,,0.00,meteohub,2013-03-10 04:59:00,